When you browse on this site, cookies collect data to enhance your experience and personalize the content and advertising you see.
Visit our Privacy Policy to learn more. By continuing to use the site, you agree to this use of cookies and data.
  • In Schweiz
  • Länderverzeichnis
  • Für 7 Tage
  • Wassertemperatur
  • Wetterkarte
  • Widgets
  • user-avatar
    Anmelden

    Stündliche Wetter Stirling

    Heute, 3 April, Freitag

    Zeit Temperatur Niederschläge Wind Luftdruck Luftfeuchtigkeit
    00:00 +1°C° 0 mm 2 m/S 758 mmHg 81%
    01:00 +1°C° 0 mm 2 m/S 758 mmHg 82%
    02:00 +1°C° 0 mm 2 m/S 758 mmHg 83%
    03:00 +1°C° 0 mm 2 m/S 758 mmHg 85%
    04:00 +1°C° 0 mm 2 m/S 758 mmHg 86%
    05:00 +1°C° 0 mm 2 m/S 758 mmHg 88%
    06:00 +1°C° 0 mm 2 m/S 758 mmHg 89%
    07:00 +3°C° 0 mm 2 m/S 758 mmHg 84%
    08:00 +3°C° 0 mm 3 m/S 758 mmHg 79%
    09:00 +4°C° 0 mm 3 m/S 758 mmHg 74%
    10:00 +5°C° 0.1 mm 3 m/S 758 mmHg 70%
    11:00 +6°C° 0.1 mm 4 m/S 759 mmHg 66%
    12:00 +7°C° 0.1 mm 4 m/S 759 mmHg 62%
    13:00 +7°C° 0.1 mm 4 m/S 759 mmHg 61%
    14:00 +7°C° 0.1 mm 4 m/S 759 mmHg 60%
    15:00 +7°C° 0.1 mm 5 m/S 759 mmHg 59%
    16:00 +7°C° 0 mm 4 m/S 759 mmHg 62%
    17:00 +7°C° 0 mm 3 m/S 759 mmHg 66%
    18:00 +5°C° 0 mm 3 m/S 759 mmHg 69%
    19:00 +5°C° 0 mm 2 m/S 759 mmHg 74%
    20:00 +4°C° 0 mm 2 m/S 760 mmHg 79%
    21:00 +4°C° 0 mm 1 m/S 760 mmHg 85%
    22:00 +4°C° 0 mm 1 m/S 760 mmHg 87%
    23:00 +3°C° 0 mm 1 m/S 760 mmHg 88%

    Morgen, 4 April, Samstag

    Zeit Temperatur Niederschläge Wind Luftdruck Luftfeuchtigkeit
    00:00 +3°C° 0 mm 1 m/S 760 mmHg 90%
    01:00 +4°C° 0 mm 1 m/S 760 mmHg 90%
    02:00 +4°C° 0 mm 1 m/S 760 mmHg 89%
    03:00 +5°C° 0 mm 1 m/S 760 mmHg 88%
    04:00 +5°C° 0 mm 1 m/S 760 mmHg 89%
    05:00 +5°C° 0 mm 1 m/S 760 mmHg 90%
    06:00 +5°C° 0 mm 1 m/S 760 mmHg 91%
    07:00 +5°C° 0 mm 2 m/S 759 mmHg 86%
    08:00 +7°C° 0 mm 3 m/S 759 mmHg 81%
    09:00 +8°C° 0 mm 3 m/S 759 mmHg 77%
    10:00 +8°C° 0.1 mm 4 m/S 759 mmHg 75%
    11:00 +8°C° 0.1 mm 5 m/S 759 mmHg 74%
    12:00 +9°C° 0.1 mm 6 m/S 759 mmHg 72%
    13:00 +9°C° 0.1 mm 6 m/S 759 mmHg 71%
    14:00 +9°C° 0.1 mm 6 m/S 759 mmHg 71%
    15:00 +9°C° 0.1 mm 6 m/S 758 mmHg 70%
    16:00 +8°C° 0 mm 5 m/S 758 mmHg 72%
    17:00 +8°C° 0 mm 5 m/S 758 mmHg 73%
    18:00 +8°C° 0 mm 4 m/S 757 mmHg 75%
    19:00 +7°C° 0 mm 4 m/S 757 mmHg 78%
    20:00 +8°C° 0 mm 3 m/S 757 mmHg 81%
    21:00 +8°C° 0 mm 3 m/S 757 mmHg 84%
    22:00 +7°C° 0 mm 3 m/S 757 mmHg 86%
    23:00 +7°C° 0 mm 3 m/S 757 mmHg 88%

    übermorgen, 5 April, Sonntag

    Zeit Temperatur Niederschläge Wind Luftdruck Luftfeuchtigkeit
    00:00 +7°C° 0 mm 3 m/S 757 mmHg 90%
    01:00 +7°C° 0 mm 3 m/S 756 mmHg 90%
    02:00 +7°C° 0 mm 3 m/S 756 mmHg 90%
    03:00 +7°C° 0 mm 3 m/S 755 mmHg 90%
    04:00 +5°C° 0 mm 3 m/S 755 mmHg 90%
    05:00 +6°C° 0 mm 2 m/S 755 mmHg 91%
    06:00 +6°C° 0 mm 2 m/S 754 mmHg 91%
    07:00 +7°C° 0 mm 3 m/S 754 mmHg 86%
    08:00 +9°C° 0 mm 3 m/S 753 mmHg 81%
    09:00 +10°C° 0 mm 4 m/S 752 mmHg 77%
    10:00 +10°C° 0 mm 5 m/S 752 mmHg 72%
    11:00 +12°C° 0 mm 5 m/S 751 mmHg 68%
    12:00 +13°C° 0 mm 6 m/S 751 mmHg 63%
    13:00 +14°C° 0 mm 6 m/S 750 mmHg 62%
    14:00 +14°C° 0 mm 7 m/S 749 mmHg 60%
    15:00 +15°C° 0 mm 7 m/S 749 mmHg 58%
    16:00 +14°C° 0.1 mm 6 m/S 748 mmHg 65%
    17:00 +13°C° 0.1 mm 5 m/S 747 mmHg 72%
    18:00 +13°C° 0.1 mm 4 m/S 747 mmHg 79%
    19:00 +13°C° 0.3 mm 5 m/S 746 mmHg 82%
    20:00 +12°C° 0.3 mm 5 m/S 746 mmHg 85%
    21:00 +11°C° 0.3 mm 6 m/S 745 mmHg 89%
    22:00 +11°C° 0.5 mm 6 m/S 745 mmHg 87%
    23:00 +10°C° 0.5 mm 6 m/S 745 mmHg 85%

    6 April, Montag

    Zeit Temperatur Niederschläge Wind Luftdruck Luftfeuchtigkeit
    00:00 +10°C° 0.5 mm 6 m/S 745 mmHg 84%
    01:00 +9°C° 0 mm 6 m/S 745 mmHg 84%
    02:00 +9°C° 0 mm 6 m/S 745 mmHg 83%
    03:00 +8°C° 0 mm 6 m/S 745 mmHg 83%
    04:00 +8°C° 0.1 mm 7 m/S 745 mmHg 83%
    05:00 +8°C° 0.1 mm 7 m/S 745 mmHg 83%
    06:00 +8°C° 0.1 mm 7 m/S 745 mmHg 83%
    07:00 +7°C° 0.1 mm 8 m/S 746 mmHg 80%
    08:00 +7°C° 0.1 mm 10 m/S 746 mmHg 78%
    09:00 +8°C° 0.1 mm 11 m/S 747 mmHg 75%
    10:00 +8°C° 0.1 mm 10 m/S 748 mmHg 71%
    11:00 +8°C° 0.1 mm 10 m/S 750 mmHg 67%
    12:00 +8°C° 0.1 mm 9 m/S 751 mmHg 63%
    13:00 +8°C° 0.1 mm 9 m/S 752 mmHg 63%
    14:00 +9°C° 0.1 mm 8 m/S 754 mmHg 62%
    15:00 +9°C° 0.1 mm 8 m/S 755 mmHg 62%
    16:00 +8°C° 0 mm 7 m/S 757 mmHg 62%
    17:00 +7°C° 0 mm 6 m/S 758 mmHg 61%
    18:00 +6°C° 0 mm 5 m/S 759 mmHg 61%
    19:00 +5°C° 0 mm 5 m/S 761 mmHg 67%
    20:00 +4°C° 0 mm 4 m/S 762 mmHg 72%
    21:00 +3°C° 0 mm 3 m/S 763 mmHg 77%
    22:00 +3°C° 0 mm 3 m/S 764 mmHg 80%
    23:00 +3°C° 0 mm 2 m/S 765 mmHg 82%

    7 April, Dienstag

    Zeit Temperatur Niederschläge Wind Luftdruck Luftfeuchtigkeit
    00:00 +3°C° 0 mm 2 m/S 766 mmHg 85%
    01:00 +3°C° 0 mm 2 m/S 767 mmHg 86%
    02:00 +3°C° 0 mm 1 m/S 767 mmHg 87%
    03:00 +3°C° 0 mm 1 m/S 768 mmHg 89%
    04:00 +3°C° 0 mm 1 m/S 768 mmHg 89%
    05:00 +3°C° 0 mm 1 m/S 769 mmHg 89%
    06:00 +3°C° 0 mm 1 m/S 769 mmHg 89%
    07:00 +4°C° 0 mm 2 m/S 770 mmHg 81%
    08:00 +5°C° 0 mm 3 m/S 770 mmHg 73%
    09:00 +6°C° 0 mm 4 m/S 770 mmHg 65%
    10:00 +7°C° 0 mm 4 m/S 770 mmHg 61%
    11:00 +8°C° 0 mm 5 m/S 770 mmHg 58%
    12:00 +10°C° 0 mm 6 m/S 770 mmHg 54%
    13:00 +10°C° 0 mm 6 m/S 770 mmHg 54%
    14:00 +11°C° 0 mm 6 m/S 769 mmHg 54%
    15:00 +11°C° 0 mm 7 m/S 769 mmHg 54%
    16:00 +10°C° 0 mm 6 m/S 769 mmHg 57%
    17:00 +9°C° 0 mm 5 m/S 769 mmHg 60%
    18:00 +8°C° 0 mm 4 m/S 769 mmHg 63%
    19:00 +7°C° 0 mm 4 m/S 769 mmHg 68%
    20:00 +7°C° 0 mm 3 m/S 769 mmHg 72%
    21:00 +5°C° 0 mm 3 m/S 769 mmHg 77%
    22:00 +5°C° 0 mm 3 m/S 769 mmHg 79%
    23:00 +5°C° 0 mm 2 m/S 769 mmHg 81%

    8 April, Mittwoch

    Zeit Temperatur Niederschläge Wind Luftdruck Luftfeuchtigkeit
    00:00 +5°C° 0 mm 2 m/S 769 mmHg 84%
    01:00 +5°C° 0 mm 2 m/S 769 mmHg 86%
    02:00 +5°C° 0 mm 2 m/S 769 mmHg 88%
    03:00 +4°C° 0 mm 2 m/S 769 mmHg 90%
    04:00 +4°C° 0 mm 2 m/S 768 mmHg 90%
    05:00 +5°C° 0 mm 1 m/S 768 mmHg 90%
    06:00 +5°C° 0 mm 1 m/S 768 mmHg 90%
    07:00 +6°C° 0 mm 2 m/S 768 mmHg 82%
    08:00 +8°C° 0 mm 3 m/S 767 mmHg 75%
    09:00 +10°C° 0 mm 4 m/S 767 mmHg 67%
    10:00 +10°C° 0 mm 5 m/S 766 mmHg 65%
    11:00 +11°C° 0 mm 6 m/S 766 mmHg 63%
    12:00 +13°C° 0 mm 6 m/S 765 mmHg 61%
    13:00 +14°C° 0 mm 7 m/S 765 mmHg 60%
    14:00 +14°C° 0 mm 7 m/S 765 mmHg 59%
    15:00 +15°C° 0 mm 7 m/S 764 mmHg 59%
    16:00 +14°C° 0 mm 6 m/S 764 mmHg 61%
    17:00 +13°C° 0 mm 5 m/S 764 mmHg 64%
    18:00 +13°C° 0 mm 4 m/S 763 mmHg 67%
    19:00 +12°C° 0 mm 4 m/S 763 mmHg 70%
    20:00 +11°C° 0 mm 4 m/S 763 mmHg 73%
    21:00 +10°C° 0 mm 3 m/S 763 mmHg 76%
    22:00 +10°C° 0 mm 3 m/S 763 mmHg 77%
    23:00 +10°C° 0 mm 3 m/S 763 mmHg 78%
    Mehr zeigen